Location: Caltech
(34.1382°N, 118.1253°W)
Time: 07:47:30
(UTC-07:00)

Iridium 75 - Visible Passes

Search period start: 21 July 2017 00:00
Search period end: 31 July 2017 00:00
Orbit: 776 x 779 km, 86.4° (Epoch: 20 July)

Date Brightness Start Highest point End Pass type
(mag) Time Alt. Az. Time Alt. Az. Time Alt. Az.
23 Jul 9.1 05:09:31 10° NE 05:12:05 14° ENE 05:14:37 10° ESE visible
26 Jul 8.8 05:08:31 10° NNE 05:12:22 20° E 05:16:10 10° SE visible
27 Jul 9.5 04:38:15 10° ENE 04:38:31 10° ENE 04:38:47 10° ENE visible
29 Jul 8.1 05:08:02 10° NNE 05:12:35 30° E 05:17:07 10° SE visible
30 Jul 8.9 04:35:44 10° NE 04:38:50 16° ENE 04:41:55 10° ESE visible
